Temperature
12 12 12 13 13 14 14 14 14 14 14 14 14 14 14 14 14 14 14 14 14 14 14 14 14 14 14 14 14 14 15 15 15 15 15 15 15 15 15 15 15 15 15
11 11 11 11 11 11 12 13 13 13 14 13 13 13 14 14 14 14 14 14 14 14 14 14 14 14 14 14 14 14 14 14 15 14 14 14 14 14 14 14 14 14 14
11 11 11 11 11 10 10 11 11 12 12 13 13 13 13 13 14 14 14 14 14 14 14 14 13 14 14 14 14 14 14 14 14 14 14 14 13 13 13 13 13 13 13
11 11 11 11 10 10 10 10 10 10 10 11 12 12 12 12 13 13 13 14 14 14 13 13 13 13 14 14 14 14 14 14 14 14 13 13 13 12 12 12 12 12 11
11 11 10 10 10 10 10 10 9 9 9 10 10 11 11 12 12 13 13 13 13 13 13 13 13 13 13 14 13 13 13 13 13 13 12 12 12 12 11 12 12 11 11
11 11 11 10 10 10 10 10 10 9 9 9 9 10 10 11 11 12 13 13 13 13 13 13 13 13 13 13 13 13 12 13 13 12 12 11 11 11 11 11 11 11 11
10 10 10 10 10 10 10 10 10 10 9 9 9 9 10 10 11 12 12 13 13 13 13 13 13 13 13 13 12 12 12 12 12 12 12 11 11 11 11 11 11 12 12
10 9 9 9 9 9 9 10 10 10 9 9 9 9 10 10 10 11 12 12 12 12 12 13 12 12 12 12 12 12 11 12 12 12 12 12 11 11 11 12 12 12 12
9 9 8 8 8 8 9 9 9 9 9 9 9 9 9 10 10 10 11 11 11 12 12 12 12 12 12 12 12 12 11 11 11 12 12 12 11 12 12 12 12 12 12
8 8 8 7 7 7 8 8 8 8 9 9 9 9 9 9 10 10 10 10 11 11 12 12 12 12 12 12 12 12 12 11 11 11 11 11 12 12 12 12 12 12 12
8 7 7 6 7 7 7 7 8 8 8 8 9 9 9 9 9 10 10 10 10 11 11 12 12 12 12 12 12 12 12 12 11 11 11 12 12 12 12 12 12 13 12
6 6 6 6 6 6 6 7 7 7 7 8 8 9 9 9 9 9 9 10 10 10 11 11 12 12 12 11 11 12 12 11 11 11 11 11 11 11 12 12 12 13 12
5 5 5 5 5 6 6 6 6 7 7 7 8 9 9 9 9 9 9 9 10 10 10 11 11 12 11 11 11 11 11 11 11 11 11 11 11 11 11 11 11 12 12
4 4 4 5 5 5 5 6 6 6 7 7 8 9 9 9 9 9 9 9 9 9 9 10 11 12 11 11 11 11 11 12 12 12 11 10 10 10 10 10 11 11 11
3 4 4 4 5 5 5 5 6 6 6 7 8 8 9 9 9 9 8 8 9 9 9 9 10 11 11 11 11 11 11 12 12 11 11 10 10 10 10 10 10 10 10
3 4 4 4 4 5 5 5 5 6 6 7 7 8 8 8 8 8 8 8 8 8 8 9 10 10 10 10 11 11 11 11 11 11 10 10 10 10 10 10 10 10 10
3 4 4 4 4 4 4 5 5 6 6 6 7 8 8 8 8 8 7 7 8 8 9 10 10 10 10 10 11 11 11 11 11 10 10 10 11 11 10 11 11 11 11
4 4 4 4 4 4 4 5 5 5 6 6 7 7 8 8 8 7 7 7 7 8 9 10 11 11 11 11 11 11 11 11 11 11 11 11 11 11 11 11 11 11 11
4 4 4 4 4 4 4 5 5 6 6 6 7 7 7 7 7 7 7 7 8 9 10 11 11 12 12 12 12 11 11 11 11 11 11 11 11 11 11 11 11 11 11
4 4 4 4 4 4 5 5 5 6 6 6 7 7 7 7 7 6 6 7 8 9 10 11 12 12 12 12 12 11 11 11 11 11 11 11 11 11 11 11 11 11 11
5 4 4 4 4 4 5 5 6 6 7 7 7 7 7 7 7 6 7 7 8 9 10 11 12 12 12 12 12 11 11 11 11 11 11 11 11 12 11 11 11 11 11
5 5 5 5 5 5 5 6 6 7 7 7 7 7 7 6 6 7 7 7 9 9 10 11 12 12 12 12 12 11 11 11 11 11 11 11 11 11 11 11 11 11 11
6 6 6 6 6 6 6 7 7 7 7 7 7 7 7 7 7 7 7 8 9 9 10 11 12 12 12 12 12 12 12 11 11 11 11 11 11 11 12 12 11 11 11
6 6 7 7 7 7 7 7 7 7 7 7 7 7 7 7 7 7 8 8 9 10 10 11 12 12 12 12 12 12 12 12 12 11 11 11 11 11 11 11 11 11 11
7 7 7 7 7 7 7 7 7 7 7 7 7 7 7 7 7 8 8 9 10 10 11 11 12 12 12 12 12 12 12 12 12 11 11 11 11 11 11 11 11 11 11
7 7 7 7 7 7 7 7 7 7 7 7 7 7 7 8 8 9 9 10 10 11 11 12 12 12 12 12 12 12 12 12 12 12 11 11 11 11 11 11 11 11 11
Wind_Speed
8 9 9 10 10 9 8 7 8 9 10 11 10 9 8 8 8 8 8 8 7 7 6 7 7 7 5 6 6 6 7 7 8 3 2 6 9 11 11 11 13 12 13
7 7 8 8 9 10 10 9 9 9 9 10 11 10 10 11 10 9 8 8 6 7 6 6 7 6 6 5 5 6 7 8 7 6 4 6 10 12 12 11 10 12 12
10 9 9 9 9 9 9 10 10 10 10 10 10 11 11 11 11 10 9 8 7 6 5 6 6 6 5 4 5 6 6 7 6 7 7 7 8 10 12 12 13 10 12
12 12 11 12 11 10 10 11 11 11 11 10 10 11 11 12 12 11 10 8 6 5 5 5 5 4 4 4 4 5 5 3 5 9 9 9 8 9 11 12 11 9 9
12 12 13 13 12 12 11 12 12 12 13 11 10 10 11 11 12 11 10 10 7 6 5 4 1 4 4 3 2 3 2 2 6 9 10 9 9 9 9 7 10 9 9
9 10 11 13 14 14 13 13 13 13 13 12 11 10 10 11 14 15 12 9 6 5 4 2 5 5 6 6 6 6 5 7 9 10 10 10 8 7 5 7 9 10 8
10 11 11 11 13 14 16 14 13 13 13 12 11 10 9 9 12 13 14 9 7 6 5 4 4 7 7 7 7 8 9 11 12 11 13 11 8 6 5 6 8 9 7
12 12 12 12 13 12 12 13 12 11 10 9 9 9 9 9 8 8 11 9 8 7 6 5 7 9 8 8 7 8 7 7 10 10 11 10 8 6 6 7 9 8 8
15 13 14 14 13 13 13 12 10 10 9 9 9 10 10 6 3 4 7 7 8 8 8 8 9 9 10 10 9 10 10 9 11 14 13 12 12 9 7 7 8 7 8
15 14 14 14 14 15 13 12 11 10 10 11 10 9 9 5 0 3 7 6 8 8 7 8 11 12 11 11 10 10 11 10 10 11 10 10 9 10 10 6 3 5 7
15 14 15 14 14 15 14 12 11 11 12 12 10 8 8 5 4 5 8 5 4 4 6 7 8 15 12 11 10 9 12 11 9 8 7 6 6 7 8 7 5 3 6
15 17 17 16 17 17 12 11 10 10 11 12 11 10 8 6 7 7 10 8 4 3 4 6 10 16 13 11 9 14 16 12 7 6 6 5 6 8 7 7 8 7 8
18 19 19 18 15 14 13 12 11 9 10 11 11 10 9 6 7 10 11 9 6 0 5 6 14 17 14 10 14 17 13 6 6 6 6 6 8 8 7 5 6 7 7
19 18 16 15 14 13 11 11 10 10 9 10 10 8 6 6 7 7 7 7 7 3 1 9 16 15 11 12 11 9 6 4 5 6 8 9 7 6 6 5 5 6 7
17 16 15 13 12 11 11 10 11 9 8 6 6 5 5 6 8 10 8 6 6 5 4 6 8 9 9 9 8 6 4 4 6 8 9 8 7 6 6 6 6 6 6
14 13 10 9 9 9 9 10 12 11 9 8 8 6 4 6 9 12 10 9 11 12 8 8 9 10 10 10 9 6 5 5 6 8 8 7 6 6 6 5 6 7 8
13 11 9 9 8 8 8 8 8 8 8 8 7 6 5 9 11 12 12 10 11 13 8 7 8 8 9 9 8 7 6 6 7 7 7 6 6 6 6 4 4 5 7
11 11 9 7 7 7 8 8 7 7 6 6 5 7 10 11 12 12 13 11 8 8 6 6 7 7 8 8 8 7 7 8 7 7 6 6 6 6 6 5 5 6 6
7 5 5 4 5 5 6 6 6 6 5 5 6 6 8 11 10 11 12 7 10 8 5 3 5 7 8 8 8 8 9 7 6 6 7 7 6 6 6 5 6 7 6
4 4 4 3 3 3 4 5 5 5 6 6 7 8 8 7 6 6 6 6 7 6 4 3 3 4 7 8 8 9 9 7 7 7 7 6 6 6 6 7 7 5 3
4 3 2 2 2 2 3 4 5 5 5 6 7 10 12 9 9 9 8 6 6 5 4 3 2 4 6 8 9 9 10 7 6 7 7 6 6 6 6 7 7 6 5
5 3 1 1 1 2 2 3 3 3 5 7 9 9 10 8 10 9 8 7 6 5 5 4 3 3 6 8 9 9 9 9 7 7 8 5 5 6 6 6 7 6 5
6 4 2 0 1 2 2 2 3 4 5 7 10 10 8 7 10 11 10 9 8 6 6 5 4 3 5 7 8 7 8 9 7 7 8 7 5 5 4 5 6 6 6
6 6 4 2 1 2 3 3 4 5 5 6 7 8 8 7 9 11 12 10 9 7 6 6 5 5 7 8 7 6 6 8 8 6 8 7 7 5 4 4 5 5 5
4 4 4 3 2 1 2 2 3 3 4 5 6 6 7 8 10 12 11 11 10 9 10 9 6 5 8 10 10 7 10 12 10 9 6 5 6 6 5 6 5 5 5
2 1 1 1 1 1 1 2 3 4 4 5 6 7 9 10 12 12 12 12 11 9 8 7 8 8 9 9 10 12 14 14 13 9 5 6 5 4 5 4 6 6 6
Wind_Direction
335 336 332 331 329 326 322 334 340 338 337 326 309 290 273 263 261 259 264 275 282 295 303 309 310 305 304 297 285 269 255 238 236 226 167 145 130 122 114 114 114 108 108
294 296 299 304 310 314 316 322 323 322 324 325 317 302 284 272 262 259 263 275 284 292 301 311 310 316 323 312 305 285 263 239 218 193 161 144 135 127 123 116 112 108 108
269 270 274 279 283 286 291 298 305 308 309 313 316 311 299 285 274 265 257 260 264 276 293 303 305 313 322 329 319 305 282 252 205 167 147 135 130 127 122 114 112 112 111
256 255 258 263 266 269 273 277 280 284 289 294 303 309 307 298 283 270 259 254 254 264 277 282 292 323 341 338 330 317 302 260 163 147 138 132 126 122 123 124 122 124 128
263 259 258 258 258 259 261 264 267 270 273 274 280 290 300 301 287 276 260 252 239 243 260 269 36 70 50 29 7 345 351 109 126 131 130 127 126 130 132 134 135 134 125
277 278 272 265 261 258 256 256 256 259 260 261 260 264 276 288 303 300 276 253 238 232 240 213 142 126 103 87 71 59 70 106 124 126 127 131 127 125 124 138 140 140 140
294 290 287 282 275 263 260 256 250 251 253 253 258 258 263 276 293 285 262 242 225 222 217 206 186 140 141 124 105 86 78 87 106 121 129 129 132 141 150 162 167 157 143
294 294 294 291 289 285 270 261 257 255 254 255 259 262 265 278 303 278 252 240 228 216 197 183 148 154 159 151 136 109 100 100 112 116 120 124 132 154 177 174 159 141 131
290 290 291 289 287 288 287 278 271 265 260 257 260 259 262 264 305 260 231 241 229 215 192 174 159 158 158 158 132 115 106 97 96 105 113 119 120 121 138 143 140 135 133
287 288 289 287 283 281 281 283 283 280 271 261 254 255 260 250 170 200 199 240 238 215 185 166 161 151 151 151 142 132 124 123 122 118 117 120 111 92 82 91 120 151 143
292 293 290 285 280 276 272 269 270 273 272 267 261 258 257 235 166 171 180 210 256 240 190 168 152 147 146 143 145 137 139 138 134 128 120 114 103 88 74 59 48 113 136
299 296 290 283 277 274 269 267 263 264 268 265 258 253 252 219 181 174 171 183 189 294 253 179 156 155 150 147 142 145 152 150 145 140 136 131 112 94 82 71 60 64 89
295 290 285 280 273 267 264 264 262 257 258 257 252 245 239 212 184 188 183 170 144 238 282 197 157 152 142 137 145 154 165 175 155 148 138 119 109 110 104 94 84 78 73
290 286 281 276 271 264 256 254 254 250 248 250 250 245 217 186 192 192 192 162 124 78 317 150 144 146 139 135 148 161 191 183 148 133 119 115 120 134 140 140 127 111 94
283 281 277 272 267 264 259 252 248 243 237 248 257 243 203 196 206 191 186 166 144 129 142 156 149 144 141 148 161 178 181 145 128 121 124 137 154 161 157 153 141 131 122
280 277 272 268 266 261 256 256 238 228 226 244 251 248 203 178 167 170 169 154 142 146 163 175 161 152 153 158 166 169 158 144 131 129 140 158 163 151 142 150 157 151 147
278 275 272 267 260 255 249 242 236 216 213 225 228 207 164 149 157 163 159 156 155 160 182 181 164 158 158 162 164 162 158 146 138 145 156 159 146 137 143 163 162 141 137
281 279 274 265 256 250 243 233 224 210 200 198 182 163 148 145 150 153 149 147 163 180 193 178 165 164 160 161 163 162 151 144 150 157 155 150 146 148 156 161 145 136 130
293 287 281 272 254 239 229 218 212 202 205 191 148 131 121 122 128 146 153 167 171 181 191 184 170 164 157 156 153 145 142 151 161 150 147 151 154 152 160 159 127 122 144
310 303 298 283 251 220 209 206 206 199 199 185 159 147 141 138 140 153 161 160 166 180 193 203 188 160 153 144 136 137 145 155 154 146 145 153 157 159 159 142 134 148 184
344 332 297 265 246 223 207 201 200 196 189 168 154 151 157 155 152 154 152 159 172 186 209 222 225 164 143 136 140 148 152 154 160 151 150 165 162 149 139 135 145 173 171
356 358 358 216 201 186 190 196 195 182 169 144 136 142 157 153 147 150 155 170 187 203 216 228 228 179 152 150 149 157 157 159 168 154 151 161 145 146 151 154 165 176 157
1 10 18 44 133 161 192 179 169 162 150 140 137 145 160 153 148 155 167 181 194 210 216 221 229 202 165 151 149 160 160 159 163 153 151 155 152 157 161 160 163 163 161
3 11 27 58 119 147 146 146 149 143 137 136 139 149 157 156 159 166 175 183 193 202 215 219 225 207 173 153 154 167 164 152 156 155 157 158 160 166 170 161 166 178 179
359 4 12 24 51 88 133 154 154 149 151 158 160 164 168 173 174 177 182 186 193 201 206 205 211 214 187 170 166 162 146 141 151 159 154 168 172 175 178 178 178 193 200
355 350 327 304 279 248 229 207 199 198 191 189 188 186 185 184 179 179 183 186 192 198 200 204 212 205 181 174 157 139 137 134 129 133 162 177 192 195 189 196 203 207 214
Height
1476 1473 1471 1469 1468 1467 1466 1465 1464 1463 1462 1462 1462 1462 1463 1463 1463 1462 1461 1459 1457 1455 1454 1452 1450 1448 1446 1445 1443 1442 1442 1443 1443 1445 1447 1449 1451 1453 1456 1460 1463 1466 1469
1472 1469 1466 1464 1462 1460 1458 1457 1457 1457 1457 1456 1456 1456 1456 1456 1457 1457 1456 1455 1453 1451 1450 1449 1447 1445 1443 1441 1439 1437 1436 1436 1437 1439 1442 1445 1448 1451 1455 1458 1462 1465 1468
1467 1464 1462 1459 1457 1454 1452 1450 1449 1448 1448 1449 1449 1448 1449 1449 1450 1451 1450 1449 1448 1448 1446 1445 1444 1442 1440 1438 1435 1432 1430 1430 1431 1434 1437 1442 1446 1450 1454 1458 1462 1465 1468
1461 1458 1455 1453 1451 1448 1446 1444 1441 1440 1439 1439 1440 1441 1441 1441 1442 1444 1444 1444 1443 1443 1443 1442 1441 1439 1437 1435 1432 1429 1426 1425 1427 1430 1434 1439 1444 1449 1453 1457 1462 1466 1469
1455 1452 1449 1447 1444 1442 1440 1438 1436 1434 1431 1430 1431 1432 1433 1434 1435 1437 1438 1438 1438 1439 1439 1439 1438 1437 1435 1433 1430 1427 1425 1423 1425 1428 1432 1437 1443 1448 1453 1457 1461 1466 1471
1449 1446 1444 1441 1438 1436 1434 1432 1430 1429 1427 1426 1424 1424 1425 1426 1428 1429 1431 1432 1433 1434 1435 1435 1435 1434 1433 1431 1429 1427 1425 1424 1425 1427 1432 1437 1443 1448 1453 1458 1462 1466 1472
1442 1439 1437 1434 1431 1429 1427 1425 1424 1423 1422 1421 1421 1420 1421 1421 1421 1421 1423 1425 1427 1429 1431 1432 1433 1432 1432 1431 1430 1429 1428 1428 1428 1430 1434 1439 1444 1449 1454 1459 1464 1468 1471
1434 1431 1429 1427 1424 1422 1420 1418 1417 1417 1417 1416 1416 1416 1416 1415 1414 1414 1415 1417 1421 1424 1426 1428 1429 1431 1432 1432 1432 1432 1432 1432 1433 1435 1438 1443 1447 1452 1457 1461 1466 1470 1474
1426 1423 1421 1419 1416 1414 1412 1411 1410 1410 1410 1410 1410 1410 1410 1409 1408 1408 1408 1410 1414 1418 1422 1424 1426 1429 1431 1432 1433 1433 1435 1436 1438 1441 1444 1447 1452 1456 1459 1463 1467 1471 1474
1416 1414 1411 1409 1407 1405 1403 1402 1402 1402 1403 1403 1403 1403 1404 1403 1402 1402 1403 1404 1408 1413 1417 1420 1423 1426 1429 1431 1433 1435 1436 1439 1441 1444 1448 1451 1455 1458 1461 1464 1467 1471 1473
1406 1403 1401 1399 1397 1395 1394 1394 1394 1394 1395 1396 1396 1397 1397 1397 1397 1397 1398 1399 1403 1407 1412 1416 1420 1424 1427 1430 1433 1435 1438 1441 1443 1446 1449 1453 1456 1458 1461 1464 1467 1470 1473
1395 1392 1389 1388 1387 1386 1385 1384 1385 1386 1387 1387 1389 1390 1391 1392 1392 1392 1393 1394 1397 1401 1406 1411 1416 1421 1425 1429 1432 1435 1439 1442 1445 1447 1450 1453 1455 1457 1460 1463 1467 1469 1472
1382 1379 1377 1375 1375 1375 1375 1375 1376 1377 1379 1380 1382 1383 1384 1385 1386 1387 1388 1389 1392 1396 1399 1405 1412 1418 1423 1427 1431 1435 1439 1443 1446 1448 1451 1453 1454 1457 1460 1463 1466 1469 1471
1369 1366 1365 1364 1363 1364 1365 1366 1367 1369 1371 1373 1375 1377 1378 1379 1380 1381 1382 1384 1388 1392 1396 1401 1408 1415 1420 1425 1430 1435 1439 1443 1446 1448 1450 1452 1455 1457 1459 1462 1465 1468 1471
1356 1354 1354 1353 1354 1355 1356 1357 1359 1361 1364 1366 1369 1371 1373 1374 1376 1377 1379 1381 1385 1389 1394 1399 1405 1412 1418 1423 1429 1434 1438 1441 1444 1446 1448 1452 1455 1458 1460 1462 1465 1467 1470
1346 1345 1345 1345 1345 1346 1347 1349 1351 1354 1357 1360 1363 1367 1369 1371 1372 1374 1377 1380 1384 1389 1395 1400 1405 1410 1416 1422 1427 1432 1436 1440 1443 1445 1449 1452 1455 1458 1461 1463 1466 1468 1470
1339 1338 1338 1338 1338 1339 1341 1343 1345 1348 1351 1355 1359 1363 1365 1367 1369 1371 1374 1378 1383 1389 1395 1401 1406 1411 1416 1422 1427 1431 1435 1438 1442 1445 1449 1452 1455 1458 1460 1463 1466 1469 1471
1334 1333 1332 1332 1332 1334 1335 1338 1341 1344 1347 1351 1355 1359 1362 1365 1367 1369 1372 1377 1383 1389 1395 1401 1407 1411 1416 1421 1426 1430 1434 1437 1441 1444 1448 1452 1455 1457 1460 1463 1466 1469 1471
1331 1330 1329 1328 1329 1330 1332 1335 1338 1342 1345 1350 1353 1357 1360 1362 1365 1367 1371 1377 1382 1388 1394 1401 1407 1412 1416 1420 1425 1429 1432 1436 1440 1444 1447 1451 1454 1457 1460 1463 1465 1468 1471
1330 1328 1327 1327 1328 1330 1332 1335 1338 1341 1345 1348 1352 1354 1357 1360 1363 1366 1371 1377 1384 1389 1395 1401 1406 1411 1416 1420 1424 1428 1432 1436 1440 1443 1447 1450 1453 1456 1459 1462 1464 1467 1470
1332 1330 1328 1328 1330 1331 1333 1336 1338 1341 1344 1348 1351 1354 1357 1360 1363 1366 1371 1378 1385 1391 1396 1401 1406 1411 1415 1420 1424 1428 1432 1435 1439 1443 1446 1449 1453 1455 1458 1461 1463 1466 1469
1336 1334 1332 1332 1332 1333 1335 1338 1340 1343 1346 1349 1352 1355 1358 1362 1365 1369 1375 1381 1388 1393 1398 1402 1407 1411 1416 1420 1424 1427 1431 1435 1438 1442 1445 1448 1452 1454 1457 1460 1462 1465 1467
1340 1338 1337 1336 1336 1337 1338 1340 1342 1345 1348 1351 1354 1357 1360 1364 1367 1372 1378 1384 1390 1395 1399 1403 1407 1412 1416 1420 1424 1427 1431 1434 1437 1441 1444 1447 1450 1453 1456 1459 1461 1464 1466
1344 1343 1341 1341 1341 1341 1342 1344 1346 1348 1350 1353 1356 1359 1362 1365 1369 1374 1381 1386 1391 1396 1400 1404 1408 1412 1416 1420 1423 1427 1430 1433 1436 1440 1443 1446 1449 1452 1455 1457 1459 1462 1464
1347 1345 1344 1343 1343 1344 1345 1346 1348 1349 1351 1354 1357 1359 1363 1366 1370 1376 1381 1387 1392 1397 1401 1405 1409 1412 1416 1419 1423 1426 1429 1433 1436 1439 1442 1445 1448 1451 1453 1455 1457 1459 1461
1348 1346 1344 1343 1343 1343 1344 1345 1347 1348 1350 1353 1355 1358 1362 1366 1371 1376 1382 1387 1392 1397 1401 1405 1409 1412 1415 1419 1422 1425 1428 1431 1435 1438 1440 1443 1446 1448 1451 1453 1455 1456 1458